Weather observations for the past three days for
Yap Island - Yap Int. Airport
Metric (Imperial)
Date Time (+10) Wind (kph) Vis. (km) Weather Sky Cond. Temperature (ºC) Relative Humidity Wind Chill (°C) Heat Index (°C) Pressure Precipitation (cm)
Air Dwpt 6 hour altimeter (cm) sea level (mb) 1 hr 3 hr 6 hr
Max. Min.
05 16:50 Vrbl 11 19.31 Partly Cloudy FEW016 SCT300 29.9 25.6 78% 37 75.84 1011.3
05 15:51 Vrbl 9 19.31 Mostly Cloudy FEW016 BKN300 30.4 25.5 30.4 29.2 75% 37 75.84 1011.2
05 14:51 W 15 19.31 Mostly Cloudy FEW016 BKN300 29.9 26.1 80% 37 75.84 1011.3
05 13:51 Vrbl 11 19.31 Mostly Cloudy FEW016 BKN300 30.2 25.7 77% 37 75.87 1011.5
05 12:52 W 13 19.31 Mostly Cloudy FEW016 BKN300 29.9 25.8 79% 37 75.92 1012.2
05 11:52 W 13 19.31 Mostly Cloudy FEW016 BKN300 30.2 26.1 79% 38 75.95 1012.7
05 10:50 Vrbl 9 19.31 Mostly Cloudy FEW016 BKN300 30.2 26.2 79% 38 75.97 1013.0
05 09:52 Vrbl 11 19.31 Mostly Cloudy FEW016 BKN300 29.2 26.3 29.2 26.2 84% 36 76.05 1014.0
05 08:54 Vrbl 9 19.31 Mostly Cloudy FEW016 BKN300 28.9 26.4 86% 36 76.05 1013.9
05 07:50 Vrbl 7 19.31 Mostly Cloudy FEW016 FEW130 BKN300 26.6 25.2 92% 30 76.02 1013.5
05 06:56 Vrbl 6 19.31 Mostly Cloudy FEW016 SCT130 BKN300 26.2 24.9 93% 29 76 1013.2
05 05:50 Vrbl 4 19.31 Mostly Cloudy FEW016 SCT130 BKN300 26.3 25.1 93% 29 75.95 1012.7
05 04:50 Vrbl 6 19.31 Mostly Cloudy FEW016 SCT130 BKN300 26.6 25.3 93% 30 75.92 1012.3
05 03:54 Vrbl 6 19.31 Mostly Cloudy FEW016 SCT130 BKN300 26.5 25.2 27.1 26.5 93% 30 75.9 1011.8
05 02:57 Vrbl 4 19.31 Overcast FEW016 SCT130 OVC300 26.5 25.3 93% 30 75.92 1012.2
05 01:57 Vrbl 6 19.31 Overcast FEW016 SCT130 OVC300 26.9 25.5 92% 31 75.95 1012.7
05 00:50 Vrbl 4 19.31 Overcast SCT016 OVC300 26.9 25.4 92% 31 76 1013.2
04 23:50 Vrbl 6 19.31 Mostly Cloudy FEW016 BKN300 26.8 25.5 93% 30 76.02 1013.7
04 22:50 Vrbl 6 19.31 Mostly Cloudy SCT016 BKN300 26.7 25.6 94% 30 76.02 1013.7
04 21:50 Vrbl 4 19.31 Mostly Cloudy FEW017 BKN300 27.1 25.6 29.5 26.7 92% 31 76 1013.4
04 20:50 Vrbl 6 19.31 Mostly Cloudy FEW017 BKN300 26.7 25.7 94% 30 75.97 1012.9
04 19:51 Vrbl 4 19.31 Mostly Cloudy FEW017 BKN300 27.2 25.7 92% 31 75.95 1012.7
04 18:52 Vrbl 4 19.31 Mostly Cloudy FEW017 BKN300 27.8 26 90% 33 75.87 1011.7
04 17:50 Vrbl 7 19.31 Mostly Cloudy SCT017 BKN300 28.6 26.2 87% 35 75.82 1010.8
04 16:51 Vrbl 11 19.31 Mostly Cloudy SCT017 BKN300 29.4 26.4 84% 37 75.79 1010.5
04 15:51 Vrbl 11 19.31 Mostly Cloudy FEW017 BKN300 29.5 26 30.9 29.5 81% 37 75.77 1010.3
04 14:57 Vrbl 11 19.31 Mostly Cloudy FEW017 BKN300 29.5 26.5 84% 37 75.77 1010.1
04 13:57 W 13 19.31 Mostly Cloudy SCT017TCU BKN300 30.9 26.7 78% 40 75.82 1011.0
04 11:50 SW 13 19.31 Mostly Cloudy FEW017 BKN300 30.7 26.7 79% 40 75.9 1012.0
04 10:55 SW 13 19.31 Mostly Cloudy FEW017 SCT140 BKN300 30 26.4 81% 38 75.92 1012.2
04 09:57 Vrbl 11 19.31 Overcast FEW016 SCT130 OVC300 29.9 26.3 29.9 27.5 81% 38 75.95 1012.7
04 08:53 Vrbl 9 19.31 Overcast FEW016TCU SCT130 OVC300 28.8 26.5 87% 36 75.95 1012.7
04 07:54 Vrbl 6 19.31 Overcast FEW016 SCT130 OVC300 28.1 25.7 87% 33 75.95 1012.7
04 06:53 Vrbl 9 19.31 Overcast FEW016 SCT130 OVC300 27.6 26.6 94% 33 75.9 1012.0
04 05:55 Vrbl 9 19.31 Overcast FEW016 SCT130 OVC300 27.5 26 92% 32 75.84 1011.2
04 04:50 Vrbl 9 19.31 Overcast FEW016 SCT130 OVC300 27.5 26.1 92% 32 75.82 1010.8
04 03:55 Vrbl 6 19.31 Overcast FEW016 SCT130 OVC300 27.5 26 28.1 27.5 92% 32 75.77 1010.3
04 02:50 Vrbl 7 19.31 Mostly Cloudy FEW016TCU SCT130 BKN300 27.6 26.3 93% 33 75.82 1011.0
04 01:53 Vrbl 9 19.31 Mostly Cloudy FEW016TCU SCT130 BKN300 28 26.3 91% 34 75.9 1011.8
04 00:53 Vrbl 11 19.31 Mostly Cloudy FEW016TCU SCT130 BKN300 27.8 25.9 89% 33 75.9 1011.8
03 23:54 Vrbl 11 19.31 Mostly Cloudy FEW016 SCT130 BKN300 27.9 26.1 90% 33 75.92 1012.3
03 22:54 Vrbl 9 19.31 Overcast FEW016 SCT130 OVC300 28.1 26.2 89% 34 75.95 1012.3
03 21:50 Vrbl 11 19.31 Mostly Cloudy FEW016 SCT130 BKN300 28 25.8 30.3 28 88% 33 75.9 1012.0
03 20:53 SW 13 19.31 Overcast FEW016 SCT130 OVC300 28.2 25.9 87% 34 75.87 1011.5
03 19:50 Vrbl 11 19.31 Overcast FEW016 SCT130 OVC300 28.4 25.9 86% 34 75.84 1011.2
03 18:56 SW 13 19.31 Overcast FEW016 SCT130 OVC300 28.6 25.6 84% 34 75.82 1010.8
03 17:54 SW 13 G 22 19.31 Overcast FEW016 SCT130 OVC300 29.2 25.9 82% 36 75.77 1010.1
03 16:50 SW 17 G 31 19.31 Overcast SCT016 BKN130 OVC300 30.3 26.8 82% 39 75.72 1009.6
03 15:50 SW 13 G 31 19.31 Overcast SCT016CB BKN130 OVC300 29.9 26.8 29.9 28 83% 38 75.72 1009.6
03 14:50 Vrbl 11 19.31 Overcast FEW016 SCT130 OVC300 29.2 26.7 86% 37 75.74 1009.8
03 13:53 Vrbl 9 19.31 Overcast FEW016 SCT130 OVC300 28 25.9 88% 33 75.77 1010.3
03 12:52 Vrbl 9 19.31 Overcast FEW016 SCT130 OVC300 28.7 26.5 88% 36 75.82 1011.0
03 11:50 W 15 19.31 Overcast FEW016 SCT130 OVC300 29.4 26.7 85% 37 75.87 1011.7
03 10:55 W 13 19.31 Overcast FEW016 SCT130 OVC300 29.5 26.6 84% 37 75.9 1012.0
03 09:55 W 13 19.31 Overcast FEW016 SCT130 OVC300 29.1 25.7 29.1 27.6 82% 35 75.9 1011.8
03 08:50 W 13 19.31 Overcast FEW016 SCT130 OVC300 28.8 26.4 87% 36 75.87 1011.7
03 07:50 Vrbl 11 19.31 Overcast FEW016 SCT130 OVC300 28.2 26.2 89% 34 75.84 1011.2
03 06:50 SW 13 19.31 Overcast FEW016TCU SCT130 OVC300 28 25.9 88% 33 75.77 1010.3
03 05:50 W 13 19.31 Overcast FEW016CB SCT130 OVC300 27.9 26.4 92% 34 75.74 1009.8
03 04:50 Vrbl 11 19.31 Overcast SCT016TCU BKN130 OVC300 27.9 26.7 93% 34 75.69 1009.3
03 03:52 Vrbl 11 17.70 Light Rain SCT016TCU BKN130 OVC300 27.6 26.6 28 25.3 94% 33 75.72 1009.6 0.36
03 02:52 Vrbl 11 17.70 Light Rain SCT016TCU BKN130 OVC300 27.1 26.1 94% 32 75.77 1010.1
03 01:50 Vrbl 11 17.70 Light Rain SCT016TCU BKN130 OVC300 27 26.4 97% 31 75.79 1010.7
03 00:50 Vrbl 9 16.09 Light Rain SCT016TCU BKN130 OVC300 25.9 24.9 94% 28 75.84 1011.2 0.28
02 23:50 Vrbl 7 16.09 Light Rain SCT016TCU BKN130 OVC300 25.5 25.2 98% 27 75.84 1011.3
02 22:55 Vrbl 6 16.09 Light Rain SCT016TCU BKN130 OVC300 25.3 24.5 95% 26 75.95 1012.3
02 21:53 W 30 G 43 19.31 Overcast FEW016 SCT130 OVC300 28 25.9 28.7 28 88% 33 75.9 1012.0
02 20:52 W 13 19.31 Overcast FEW016 SCT130 OVC300 28.4 26.4 89% 35 75.82 1011.0
02 19:55 Vrbl 9 19.31 Overcast FEW016 SCT130 OVC300 28.3 26.4 89% 35 75.79 1010.7
02 18:53 Vrbl 9 19.31 Overcast FEW016 SCT130 OVC300 28.2 25.3 84% 33 75.79 1010.5
02 17:51 Vrbl 9 19.31 Overcast FEW016 BKN130 OVC300 28.1 26.4 91% 34 75.74 1010.0
Date Time (+10) Wind (kph) Vis. (km) Weather Sky Cond. Air Dwpt Max. Min. Relative Humidity Wind Chill (°C) Heat Index (°C) altimeter (cm) sea level (mb) 1 hr 3 hr 6 hr
6 hour
Temperature (ºC) Pressure Precipitation (cm)